User: anonymous   Login
Location: Newark
(55.7083°N, 13.1992°E)
Time: 22:03:04
(UTC+00:00)
Language:

Altair - Orbit

View from above orbital plane
View from above orbital plane
View from above satellite
View from above satellite

Ground track
Ground track

The orbit data is extracted from the following two-line orbital elements,

1    50U 60009B   20048.49803867 -.00000123  00000-0 -35823-3 0  9991
2    50  47.2311 136.6754 0113364 324.9233  34.4130 12.20108949655907
Epoch (UTC): 17 February 2020 11:57:10
Eccentricity: 0.0113364
inclination: 47.2311°
perigee height: 1502 km
apogee height: 1682 km
right ascension of ascending node: 136.6754°
argument of perigee: 324.9233°
revolutions per day: 12.20108949
mean anomaly at epoch: 34.4130°
orbit number at epoch: 65590

The dashed part of the orbit path shows where the satellite is in the earth's shadow,  

DLR